Weather Roundup
Issued by NWS Chicago, IL

Home | Current Version | Previous Version | Text Only | Print | Product List | Glossary Off
Versions: 1 2 3 4 5 6 7 8 9 10 11 12 13 14 15 16 17 18 19 20 21 22 23 24 25 26 27 28 29 30 31 32 33 34 35 36 37 38 39 40 41 42 43 44 45 46 47 48 49 50

000
NZUS59 KLOT 222100
HRRLOT

CHICAGO AREA WEATHER ROUNDUP
NATIONAL WEATHER SERVICE CHICAGO/ROMEOVILLE IL
400 PM CDT WED OCT 22 2014

NOTE: "FAIR" INDICATES FEW OR NO CLOUDS BELOW 12,000 FEET WITH NO
SIGNIFICANT WEATHER AND/OR OBSTRUCTIONS TO VISIBILITY.

* THESE STATIONS ARE NOT UNDER NWS QUALITY CONTROL. THEY ALSO MAY NOT
  REPORT WEATHER SUCH AS PRECIPITATION OR FOG.

ILZ005-006-012>014-019>023-222200-
NORTHEAST ILLINOIS

CITY           SKY/WX    TMP DP  RH WIND       PRES   REMARKS
OHARE          SUNNY     54  38  54 E8        30.29F
MIDWAY         MOSUNNY   54  36  50 E8        30.30F
AURORA         SUNNY     58  36  43 E6        30.29F
WAUKEGAN       SUNNY     49  39  68 E8        30.30F
DUPAGE AIRPORT SUNNY     59  37  44 CALM      30.27F
WHEELING       SUNNY     54  39  57 E9        30.32F
NORTHERLY IS     N/A     50  37  61 NE7         N/A
$$

WIZ051-052-058>065-066-070>072-222200-
SOUTHEAST WISCONSIN

CITY           SKY/WX    TMP DP  RH WIND       PRES   REMARKS
MILWAUKEE      MOSUNNY   50  39  66 E13       30.31F
KENOSHA*       SUNNY     52  40  63 E8        30.31F
RACINE*        SUNNY     51  38  60 SE6       30.33F
WAUKESHA       SUNNY     54  39  58 E98       30.30F
$$

INZ001>003-010>013-019-020-222200-
NORTHWEST INDIANA

CITY           SKY/WX    TMP DP  RH WIND       PRES   REMARKS
GARY*          SUNNY     52  37  58 NE8       30.32F
MICHIGAN CITY* NOT AVBL
RENSSELAER*    NOT AVBL
$$

LMZ740>746-222200-
SOUTHERN LAKE MICHIGAN

STATION/POSITION TIME  SKY/WX   TEMP WIND        PRES    VSBY
                                AIR  DIR/SP/G
                 (UTC)          (F)  (DEG/KT/KT) (MB)    (MI)
HARRISON CRIB    2000            47   70/  5/  6   N/A
BURNHAM HARBOR   2100            50   50/  6/  7   N/A
CALUMET HARBOR   2000            49   10/  6/  8 1025.4F
BURNS HARBOR     NOT AVBL
MICHIGAN CITY    2000            48  350/ 10/ 12   N/A
$$

ABBREVIATIONS USED IN REMARKS
   TC - TEMPERATURE IN CELSIUS
  WCI - WIND CHILL INDEX
   HX - HEAT INDEX
  VSB - VISIBILITY
$$



USA.gov is the U.S. government's official web portal to all federal, state and local government web resources and services.